When you browse on this site, cookies collect data to enhance your experience and personalize the content and advertising you see.
Visit our Privacy Policy to learn more. By continuing to use the site, you agree to this use of cookies and data.
  • In Hungary
  • List of Countries
  • For 7 days
  • Water Temperature
  • Satellite Maps
  • Weather Map
  • News
  • Weather Widgets
  • user-avatar
    Login

    Hourly Weather Makas

    Today, 13 December, Thursday

    Time Temperature Precipitation Wind Pressure Humidity
    00:00 +21°C° 0 mm 1 mps 677 mmHg 87%
    01:00 +21°C° 0 mm 1 mps 676 mmHg 86%
    02:00 +21°C° 0 mm 1 mps 676 mmHg 84%
    03:00 +21°C° 0 mm 1 mps 676 mmHg 83%
    04:00 +21°C° 0 mm 1 mps 676 mmHg 81%
    05:00 +21°C° 0.1 mm 1 mps 676 mmHg 82%
    06:00 +21°C° 0.1 mm 1 mps 677 mmHg 82%
    07:00 +22°C° 0.1 mm 1 mps 677 mmHg 83%
    08:00 +23°C° 0.1 mm 1 mps 677 mmHg 78%
    09:00 +24°C° 0.1 mm 1 mps 678 mmHg 74%
    10:00 +26°C° 0.1 mm 1 mps 678 mmHg 70%
    11:00 +27°C° 0.1 mm 1 mps 678 mmHg 67%
    12:00 +27°C° 0.1 mm 1 mps 678 mmHg 65%
    13:00 +28°C° 0.1 mm 1 mps 677 mmHg 63%
    14:00 +28°C° 0.4 mm 1 mps 677 mmHg 68%
    15:00 +27°C° 0.4 mm 1 mps 676 mmHg 73%
    16:00 +27°C° 0.4 mm 1 mps 675 mmHg 78%
    17:00 +25°C° 0.4 mm 1 mps 675 mmHg 84%
    18:00 +24°C° 0.4 mm 1 mps 675 mmHg 89%
    19:00 +22°C° 0.4 mm 1 mps 675 mmHg 95%
    20:00 +22°C° 0 mm 1 mps 676 mmHg 95%
    21:00 +22°C° 0 mm 1 mps 676 mmHg 95%
    22:00 +21°C° 0 mm 1 mps 676 mmHg 94%
    23:00 +21°C° 0.3 mm 1 mps 676 mmHg 94%

    Tomorrow, 14 December, Friday

    Time Temperature Precipitation Wind Pressure Humidity
    00:00 +21°C° 0.3 mm 1 mps 676 mmHg 94%
    01:00 +21°C° 0.3 mm 1 mps 676 mmHg 93%
    02:00 +21°C° 0.1 mm 1 mps 676 mmHg 92%
    03:00 +21°C° 0.1 mm 1 mps 675 mmHg 91%
    04:00 +21°C° 0.1 mm 1 mps 675 mmHg 89%
    05:00 +21°C° 0 mm 1 mps 676 mmHg 88%
    06:00 +21°C° 0 mm 1 mps 676 mmHg 87%
    07:00 +22°C° 0 mm 1 mps 677 mmHg 85%
    08:00 +23°C° 0.1 mm 1 mps 677 mmHg 80%
    09:00 +25°C° 0.1 mm 1 mps 678 mmHg 75%
    10:00 +26°C° 0.1 mm 1 mps 678 mmHg 70%
    11:00 +27°C° 0.2 mm 1 mps 678 mmHg 66%
    12:00 +29°C° 0.2 mm 2 mps 678 mmHg 61%
    13:00 +30°C° 0.2 mm 2 mps 677 mmHg 57%
    14:00 +29°C° 0.6 mm 2 mps 676 mmHg 65%
    15:00 +28°C° 0.6 mm 2 mps 676 mmHg 74%
    16:00 +27°C° 0.6 mm 1 mps 675 mmHg 82%
    17:00 +26°C° 1.3 mm 1 mps 675 mmHg 87%
    18:00 +24°C° 1.3 mm 1 mps 675 mmHg 92%
    19:00 +21°C° 1.3 mm 0 mps 675 mmHg 97%
    20:00 +21°C° 1.1 mm 0 mps 676 mmHg 97%
    21:00 +22°C° 1.1 mm 1 mps 677 mmHg 98%
    22:00 +22°C° 1.1 mm 1 mps 677 mmHg 98%
    23:00 +22°C° 0.6 mm 1 mps 677 mmHg 98%

    Day after tomorrow, 15 December, Saturday

    Time Temperature Precipitation Wind Pressure Humidity
    00:00 +22°C° 0.6 mm 1 mps 677 mmHg 98%
    01:00 +22°C° 0.6 mm 1 mps 677 mmHg 98%
    02:00 +22°C° 0.3 mm 1 mps 676 mmHg 97%
    03:00 +21°C° 0.3 mm 1 mps 676 mmHg 97%
    04:00 +21°C° 0.3 mm 1 mps 676 mmHg 97%
    05:00 +21°C° 0.4 mm 1 mps 676 mmHg 97%
    06:00 +21°C° 0.4 mm 1 mps 677 mmHg 97%
    07:00 +22°C° 0.4 mm 1 mps 677 mmHg 96%
    08:00 +22°C° 1.1 mm 1 mps 677 mmHg 96%
    09:00 +22°C° 1.1 mm 1 mps 678 mmHg 96%
    10:00 +23°C° 1.1 mm 1 mps 678 mmHg 95%
    11:00 +22°C° 1.5 mm 1 mps 678 mmHg 96%
    12:00 +22°C° 1.5 mm 1 mps 677 mmHg 97%
    13:00 +22°C° 1.5 mm 1 mps 676 mmHg 97%
    14:00 +22°C° 0.3 mm 1 mps 676 mmHg 95%
    15:00 +23°C° 0.3 mm 1 mps 675 mmHg 93%
    16:00 +23°C° 0.3 mm 1 mps 675 mmHg 91%
    17:00 +23°C° 0 mm 1 mps 675 mmHg 91%
    18:00 +22°C° 0 mm 1 mps 675 mmHg 92%
    19:00 +20°C° 0 mm 0 mps 675 mmHg 92%
    20:00 +21°C° 0 mm 1 mps 676 mmHg 92%
    21:00 +21°C° 0 mm 1 mps 677 mmHg 91%
    22:00 +21°C° 0 mm 1 mps 677 mmHg 91%
    23:00 +21°C° 0 mm 1 mps 677 mmHg 89%

    16 December, Sunday

    Time Temperature Precipitation Wind Pressure Humidity
    00:00 +21°C° 0 mm 1 mps 677 mmHg 88%
    01:00 +21°C° 0 mm 1 mps 677 mmHg 87%
    02:00 +21°C° 0 mm 1 mps 676 mmHg 85%
    03:00 +21°C° 0 mm 1 mps 676 mmHg 84%
    04:00 +21°C° 0 mm 1 mps 676 mmHg 83%
    05:00 +21°C° 0 mm 1 mps 676 mmHg 82%
    06:00 +21°C° 0 mm 1 mps 677 mmHg 80%
    07:00 +22°C° 0 mm 1 mps 678 mmHg 79%
    08:00 +23°C° 0 mm 1 mps 678 mmHg 72%
    09:00 +25°C° 0 mm 1 mps 679 mmHg 66%
    10:00 +27°C° 0 mm 2 mps 679 mmHg 60%
    11:00 +28°C° 0 mm 2 mps 679 mmHg 59%
    12:00 +28°C° 0 mm 2 mps 678 mmHg 57%
    13:00 +29°C° 0 mm 2 mps 677 mmHg 56%
    14:00 +28°C° 0.3 mm 2 mps 677 mmHg 63%
    15:00 +28°C° 0.3 mm 2 mps 676 mmHg 71%
    16:00 +27°C° 0.3 mm 1 mps 675 mmHg 78%
    17:00 +25°C° 0.4 mm 1 mps 675 mmHg 84%
    18:00 +24°C° 0.4 mm 1 mps 675 mmHg 90%
    19:00 +21°C° 0.4 mm 0 mps 675 mmHg 96%
    20:00 +20°C° 0.4 mm 0 mps 676 mmHg 96%
    21:00 +22°C° 0.4 mm 1 mps 677 mmHg 97%
    22:00 +22°C° 0.4 mm 1 mps 677 mmHg 97%
    23:00 +21°C° 0.2 mm 1 mps 677 mmHg 97%

    17 December, Monday

    Time Temperature Precipitation Wind Pressure Humidity
    00:00 +21°C° 0.2 mm 1 mps 676 mmHg 97%
    01:00 +20°C° 0.2 mm 1 mps 676 mmHg 96%
    02:00 +20°C° 0.1 mm 1 mps 676 mmHg 96%
    03:00 +20°C° 0.1 mm 1 mps 675 mmHg 95%
    04:00 +20°C° 0.1 mm 1 mps 675 mmHg 95%
    05:00 +20°C° 0 mm 1 mps 676 mmHg 93%
    06:00 +21°C° 0 mm 1 mps 676 mmHg 91%
    07:00 +21°C° 0 mm 1 mps 677 mmHg 90%
    08:00 +23°C° 0.2 mm 1 mps 677 mmHg 83%
    09:00 +25°C° 0.2 mm 1 mps 678 mmHg 77%
    10:00 +27°C° 0.2 mm 1 mps 679 mmHg 71%
    11:00 +27°C° 0.5 mm 1 mps 678 mmHg 73%
    12:00 +27°C° 0.5 mm 2 mps 677 mmHg 75%
    13:00 +27°C° 0.5 mm 2 mps 676 mmHg 77%
    14:00 +27°C° 0.6 mm 1 mps 676 mmHg 81%
    15:00 +26°C° 0.6 mm 1 mps 675 mmHg 85%
    16:00 +26°C° 0.6 mm 1 mps 674 mmHg 89%
    17:00 +23°C° 0.4 mm 0 mps 674 mmHg 92%
    18:00 +22°C° 0.4 mm 0 mps 675 mmHg 95%
    19:00 +21°C° 0.4 mm 0 mps 675 mmHg 98%
    20:00 +20°C° 0.5 mm 0 mps 675 mmHg 98%
    21:00 +20°C° 0.5 mm 0 mps 676 mmHg 98%
    22:00 +20°C° 0.5 mm 0 mps 676 mmHg 97%
    23:00 +22°C° 0.3 mm 1 mps 676 mmHg 97%

    18 December, Tuesday

    Time Temperature Precipitation Wind Pressure Humidity
    00:00 +21°C° 0.3 mm 1 mps 676 mmHg 96%
    01:00 +21°C° 0.3 mm 1 mps 675 mmHg 95%
    02:00 +21°C° 0.2 mm 1 mps 675 mmHg 95%
    03:00 +21°C° 0.2 mm 1 mps 675 mmHg 94%
    04:00 +21°C° 0.2 mm 1 mps 674 mmHg 94%
    05:00 +21°C° 0.1 mm 1 mps 675 mmHg 92%
    06:00 +22°C° 0.1 mm 1 mps 676 mmHg 91%
    07:00 +22°C° 0.1 mm 1 mps 676 mmHg 90%
    08:00 +23°C° 0.2 mm 1 mps 677 mmHg 86%
    09:00 +25°C° 0.2 mm 1 mps 677 mmHg 83%
    10:00 +26°C° 0.2 mm 1 mps 678 mmHg 79%
    11:00 +26°C° 0.6 mm 1 mps 677 mmHg 81%
    12:00 +26°C° 0.6 mm 1 mps 676 mmHg 83%
    13:00 +26°C° 0.6 mm 1 mps 676 mmHg 85%
    14:00 +26°C° 0.7 mm 1 mps 675 mmHg 88%
    15:00 +25°C° 0.7 mm 1 mps 674 mmHg 90%
    16:00 +25°C° 0.7 mm 1 mps 674 mmHg 93%
    17:00 +24°C° 0.7 mm 1 mps 674 mmHg 94%
    18:00 +23°C° 0.7 mm 1 mps 675 mmHg 96%
    19:00 +21°C° 0.7 mm 0 mps 675 mmHg 98%
    20:00 +20°C° 0.3 mm 0 mps 675 mmHg 98%
    21:00 +22°C° 0.3 mm 1 mps 676 mmHg 98%
    22:00 +22°C° 0.3 mm 1 mps 676 mmHg 97%
    23:00 +22°C° 0.1 mm 1 mps 676 mmHg 97%
    Show more